date,time,water_lv
2023-09-01,00:00:00,0.97
2023-09-01,00:10:00,0.96
2023-09-01,00:20:00,0.96
2023-09-01,00:30:00,0.97
2023-09-01,00:40:00,0.96
2023-09-01,00:50:00,0.96
2023-09-01,01:00:00,0.96
2023-09-01,01:10:00,0.96
2023-09-01,01:20:00,0.95
2023-09-01,01:30:00,0.93
2023-09-01,01:40:00,0.91
2023-09-01,01:50:00,0.91
2023-09-01,02:00:00,0.9
2023-09-01,02:10:00,0.88
2023-09-01,02:20:00,0.87
2023-09-01,02:30:00,0.85
2023-09-01,02:40:00,0.83
2023-09-01,02:50:00,0.82
2023-09-01,03:00:00,0.8
2023-09-01,03:10:00,0.77
2023-09-01,03:20:00,0.75
2023-09-01,03:30:00,0.74
2023-09-01,03:40:00,0.73
2023-09-01,03:50:00,0.7
2023-09-01,04:00:00,0.68
2023-09-01,04:10:00,0.67
2023-09-01,04:20:00,0.65
2023-09-01,04:30:00,0.64
2023-09-01,04:40:00,0.62
2023-09-01,04:50:00,0.59
2023-09-01,05:00:00,0.58
2023-09-01,05:10:00,0.56
2023-09-01,05:20:00,0.55
2023-09-01,05:30:00,0.54
2023-09-01,05:40:00,0.52
2023-09-01,05:50:00,0.51
2023-09-01,06:00:00,0.5
2023-09-01,06:10:00,0.48
2023-09-01,06:20:00,0.47
2023-09-01,06:30:00,0.46
2023-09-01,06:40:00,0.44
2023-09-01,06:50:00,0.42
2023-09-01,07:00:00,0.41
2023-09-01,07:10:00,0.4
2023-09-01,07:20:00,0.39
2023-09-01,07:30:00,0.37
2023-09-01,07:40:00,0.35
2023-09-01,07:50:00,0.35
2023-09-01,08:00:00,0.33
2023-09-01,08:10:00,0.32
2023-09-01,08:20:00,0.3
2023-09-01,08:30:00,0.3
2023-09-01,08:40:00,0.28
2023-09-01,08:50:00,0.26
2023-09-01,09:00:00,0.25
2023-09-01,09:10:00,0.24
2023-09-01,09:20:00,0.23
2023-09-01,09:30:00,0.21
2023-09-01,09:40:00,0.21
2023-09-01,09:50:00,0.2
2023-09-01,10:00:00,0.19
2023-09-01,10:10:00,0.18
2023-09-01,10:20:00,0.17
2023-09-01,10:30:00,0.16
2023-09-01,10:40:00,0.15
2023-09-01,10:50:00,0.14
2023-09-01,11:00:00,0.13
2023-09-01,11:10:00,0.13
2023-09-01,11:20:00,0.12
2023-09-01,11:30:00,0.12
2023-09-01,11:40:00,0.11
2023-09-01,11:50:00,0.11
2023-09-01,12:00:00,0.1
2023-09-01,12:10:00,0.09
2023-09-01,12:20:00,0.09
2023-09-01,12:30:00,0.09
2023-09-01,12:40:00,0.09
2023-09-01,12:50:00,0.07
2023-09-01,13:00:00,0.08
2023-09-01,13:10:00,0.09
2023-09-01,13:20:00,0.07
2023-09-01,13:30:00,0.07
2023-09-01,13:40:00,0.07
2023-09-01,13:50:00,0.07
2023-09-01,14:00:00,0.07
2023-09-01,14:10:00,0.07
2023-09-01,14:20:00,0.07
2023-09-01,14:30:00,0.07
2023-09-01,14:40:00,0.08
2023-09-01,14:50:00,0.08
2023-09-01,15:00:00,0.09
2023-09-01,15:10:00,0.09
2023-09-01,15:20:00,0.1
2023-09-01,15:30:00,0.1
2023-09-01,15:40:00,0.11
2023-09-01,15:50:00,0.11
2023-09-01,16:00:00,0.12
2023-09-01,16:10:00,0.14
2023-09-01,16:20:00,0.15
2023-09-01,16:30:00,0.16
2023-09-01,16:40:00,0.17
2023-09-01,16:50:00,0.19
2023-09-01,17:00:00,0.2
2023-09-01,17:10:00,0.22
2023-09-01,17:20:00,0.24
2023-09-01,17:30:00,0.25
2023-09-01,17:40:00,0.28
2023-09-01,17:50:00,0.3
2023-09-01,18:00:00,0.32
2023-09-01,18:10:00,0.33
2023-09-01,18:20:00,0.36
2023-09-01,18:30:00,0.37
2023-09-01,18:40:00,0.39
2023-09-01,18:50:00,0.42
2023-09-01,19:00:00,0.43
2023-09-01,19:10:00,0.46
2023-09-01,19:20:00,0.47
2023-09-01,19:30:00,0.49
2023-09-01,19:40:00,0.51
2023-09-01,19:50:00,0.53
2023-09-01,20:00:00,0.55
2023-09-01,20:10:00,0.56
2023-09-01,20:20:00,0.58
2023-09-01,20:30:00,0.59
2023-09-01,20:40:00,0.62
2023-09-01,20:50:00,0.63
2023-09-01,21:00:00,0.65
2023-09-01,21:10:00,0.67
2023-09-01,21:20:00,0.68
2023-09-01,21:30:00,0.7
2023-09-01,21:40:00,0.72
2023-09-01,21:50:00,0.74
2023-09-01,22:00:00,0.76
2023-09-01,22:10:00,0.77
2023-09-01,22:20:00,0.79
2023-09-01,22:30:00,0.81
2023-09-01,22:40:00,0.84
2023-09-01,22:50:00,0.85
2023-09-01,23:00:00,0.88
2023-09-01,23:10:00,0.9
2023-09-01,23:20:00,0.91
2023-09-01,23:30:00,0.94
2023-09-01,23:40:00,0.96
2023-09-01,23:50:00,0.98
2023-09-02,00:00:00,1
2023-09-02,00:10:00,1.03
2023-09-02,00:20:00,1.05
2023-09-02,00:30:00,1.07
2023-09-02,00:40:00,1.1
2023-09-02,00:50:00,1.12
2023-09-02,01:00:00,1.15
2023-09-02,01:10:00,1.17
2023-09-02,01:20:00,1.2
2023-09-02,01:30:00,1.22
2023-09-02,01:40:00,1.24
2023-09-02,01:50:00,1.27
2023-09-02,02:00:00,1.29
2023-09-02,02:10:00,1.31
2023-09-02,02:20:00,1.33
2023-09-02,02:30:00,1.35
2023-09-02,02:40:00,1.37
2023-09-02,02:50:00,1.4
2023-09-02,03:00:00,1.41
2023-09-02,03:10:00,1.44
2023-09-02,03:20:00,1.46
2023-09-02,03:30:00,1.47
2023-09-02,03:40:00,1.49
2023-09-02,03:50:00,1.51
2023-09-02,04:00:00,1.54
2023-09-02,04:10:00,1.56
2023-09-02,04:20:00,1.58
2023-09-02,04:30:00,1.6
2023-09-02,04:40:00,1.62
2023-09-02,04:50:00,1.64
2023-09-02,05:00:00,1.66
2023-09-02,05:10:00,1.68
2023-09-02,05:20:00,1.7
2023-09-02,05:30:00,1.72
2023-09-02,05:40:00,1.74
2023-09-02,05:50:00,1.77
2023-09-02,06:00:00,1.78
2023-09-02,06:10:00,1.81
2023-09-02,06:20:00,1.82
2023-09-02,06:30:00,1.85
2023-09-02,06:40:00,1.87
2023-09-02,06:50:00,1.89
2023-09-02,07:00:00,1.91
2023-09-02,07:10:00,1.93
2023-09-02,07:20:00,1.95
2023-09-02,07:30:00,1.97
2023-09-02,07:40:00,1.99
2023-09-02,07:50:00,2.01
2023-09-02,08:00:00,2.03
2023-09-02,08:10:00,2.06
2023-09-02,08:20:00,2.07
2023-09-02,08:30:00,2.09
2023-09-02,08:40:00,2.11
2023-09-02,08:50:00,2.13
2023-09-02,09:00:00,2.15
2023-09-02,09:10:00,2.17
2023-09-02,09:20:00,2.19
2023-09-02,09:30:00,2.21
2023-09-02,09:40:00,2.23
2023-09-02,09:50:00,2.25
2023-09-02,10:00:00,2.27
2023-09-02,10:10:00,2.28
2023-09-02,10:20:00,-
2023-09-02,10:30:00,2.33
2023-09-02,10:40:00,2.34
2023-09-02,10:50:00,2.36
2023-09-02,11:00:00,2.39
2023-09-02,11:10:00,2.41
2023-09-02,11:20:00,2.42
2023-09-02,11:30:00,2.43
2023-09-02,11:40:00,2.45
2023-09-02,11:50:00,2.48
2023-09-02,12:00:00,2.49
2023-09-02,12:10:00,2.51
2023-09-02,12:20:00,2.53
2023-09-02,12:30:00,2.54
2023-09-02,12:40:00,2.56
2023-09-02,12:50:00,2.58
2023-09-02,13:00:00,2.6
2023-09-02,13:10:00,2.6
2023-09-02,13:20:00,2.63
2023-09-02,13:30:00,2.63
2023-09-02,13:40:00,2.65
2023-09-02,13:50:00,2.66
2023-09-02,14:00:00,2.69
2023-09-02,14:10:00,2.69
2023-09-02,14:20:00,2.71
2023-09-02,14:30:00,2.73
2023-09-02,14:40:00,2.75
2023-09-02,14:50:00,2.76
2023-09-02,15:00:00,2.78
2023-09-02,15:10:00,2.79
2023-09-02,15:20:00,2.81
2023-09-02,15:30:00,2.82
2023-09-02,15:40:00,2.84
2023-09-02,15:50:00,2.85
2023-09-02,16:00:00,2.87
2023-09-02,16:10:00,2.88
2023-09-02,16:20:00,2.9
2023-09-02,16:30:00,2.92
2023-09-02,16:40:00,2.93
2023-09-02,16:50:00,2.95
2023-09-02,17:00:00,2.97
2023-09-02,17:10:00,2.98
2023-09-02,17:20:00,3
2023-09-02,17:30:00,3.01
2023-09-02,17:40:00,3.03
2023-09-02,17:50:00,3.05
2023-09-02,18:00:00,3.06
2023-09-02,18:10:00,3.07
2023-09-02,18:20:00,3.09
2023-09-02,18:30:00,3.1
2023-09-02,18:40:00,3.12
2023-09-02,18:50:00,3.14
2023-09-02,19:00:00,3.16
2023-09-02,19:10:00,3.16
2023-09-02,19:20:00,3.18
2023-09-02,19:30:00,3.19
2023-09-02,19:40:00,3.2
2023-09-02,19:50:00,3.22
2023-09-02,20:00:00,3.23
2023-09-02,20:10:00,3.24
2023-09-02,20:20:00,3.26
2023-09-02,20:30:00,3.27
2023-09-02,20:40:00,3.28
2023-09-02,20:50:00,3.29
2023-09-02,21:00:00,3.29
2023-09-02,21:10:00,3.31
2023-09-02,21:20:00,3.32
2023-09-02,21:30:00,3.32
2023-09-02,21:40:00,3.34
2023-09-02,21:50:00,3.34
2023-09-02,22:00:00,3.35
2023-09-02,22:10:00,3.36
2023-09-02,22:20:00,3.36
2023-09-02,22:30:00,3.36
2023-09-02,22:40:00,3.38
2023-09-02,22:50:00,3.38
2023-09-02,23:00:00,3.39
2023-09-02,23:10:00,3.38
2023-09-02,23:20:00,3.39
2023-09-02,23:30:00,3.39
2023-09-02,23:40:00,3.41
2023-09-02,23:50:00,3.4
2023-09-03,00:00:00,3.41
2023-09-03,00:10:00,3.41
2023-09-03,00:20:00,3.41
2023-09-03,00:30:00,3.41
2023-09-03,00:40:00,3.41
2023-09-03,00:50:00,3.41
2023-09-03,01:00:00,3.41
2023-09-03,01:10:00,3.41
2023-09-03,01:20:00,3.41
2023-09-03,01:30:00,3.4
2023-09-03,01:40:00,3.42
2023-09-03,01:50:00,3.41
2023-09-03,02:00:00,3.4
2023-09-03,02:10:00,3.4
2023-09-03,02:20:00,3.39
2023-09-03,02:30:00,3.38
2023-09-03,02:40:00,3.38
2023-09-03,02:50:00,3.38
2023-09-03,03:00:00,3.37
2023-09-03,03:10:00,3.37
2023-09-03,03:20:00,3.35
2023-09-03,03:30:00,3.35
2023-09-03,03:40:00,3.34
2023-09-03,03:50:00,3.33
2023-09-03,04:00:00,3.32
2023-09-03,04:10:00,3.31
2023-09-03,04:20:00,3.3
2023-09-03,04:30:00,3.28
2023-09-03,04:40:00,3.27
2023-09-03,04:50:00,3.26
2023-09-03,05:00:00,3.24
2023-09-03,05:10:00,3.23
2023-09-03,05:20:00,3.22
2023-09-03,05:30:00,3.2
2023-09-03,05:40:00,3.2
2023-09-03,05:50:00,3.18
2023-09-03,06:00:00,3.17
2023-09-03,06:10:00,3.15
2023-09-03,06:20:00,3.13
2023-09-03,06:30:00,3.11
2023-09-03,06:40:00,3.1
2023-09-03,06:50:00,3.09
2023-09-03,07:00:00,3.07
2023-09-03,07:10:00,3.06
2023-09-03,07:20:00,3.04
2023-09-03,07:30:00,3.03
2023-09-03,07:40:00,3.01
2023-09-03,07:50:00,2.98
2023-09-03,08:00:00,2.97
2023-09-03,08:10:00,2.97
2023-09-03,08:20:00,2.95
2023-09-03,08:30:00,2.93
2023-09-03,08:40:00,2.92
2023-09-03,08:50:00,2.91
2023-09-03,09:00:00,2.89
2023-09-03,09:10:00,2.89
2023-09-03,09:20:00,2.88
2023-09-03,09:30:00,2.86
2023-09-03,09:40:00,2.85
2023-09-03,09:50:00,2.84
2023-09-03,10:00:00,2.84
2023-09-03,10:10:00,2.82
2023-09-03,10:20:00,2.82
2023-09-03,10:30:00,2.81
2023-09-03,10:40:00,2.8
2023-09-03,10:50:00,2.8
2023-09-03,11:00:00,2.81
2023-09-03,11:10:00,2.79
2023-09-03,11:20:00,2.79
2023-09-03,11:30:00,2.79
2023-09-03,11:40:00,2.79
2023-09-03,11:50:00,2.8
2023-09-03,12:00:00,2.8
2023-09-03,12:10:00,2.8
2023-09-03,12:20:00,2.8
2023-09-03,12:30:00,2.81
2023-09-03,12:40:00,2.82
2023-09-03,12:50:00,2.83
2023-09-03,13:00:00,2.85
2023-09-03,13:10:00,2.86
2023-09-03,13:20:00,2.88
2023-09-03,13:30:00,2.88
2023-09-03,13:40:00,2.89
2023-09-03,13:50:00,2.91
2023-09-03,14:00:00,2.92
2023-09-03,14:10:00,2.94
2023-09-03,14:20:00,2.95
2023-09-03,14:30:00,2.97
2023-09-03,14:40:00,2.98
2023-09-03,14:50:00,3
2023-09-03,15:00:00,3.02
2023-09-03,15:10:00,3.03
2023-09-03,15:20:00,3.05
2023-09-03,15:30:00,3.07
2023-09-03,15:40:00,3.09
2023-09-03,15:50:00,3.11
2023-09-03,16:00:00,3.13
2023-09-03,16:10:00,3.14
2023-09-03,16:20:00,3.16
2023-09-03,16:30:00,3.18
2023-09-03,16:40:00,3.2
2023-09-03,16:50:00,3.22
2023-09-03,17:00:00,3.25
2023-09-03,17:10:00,3.25
2023-09-03,17:20:00,3.27
2023-09-03,17:30:00,3.29
2023-09-03,17:40:00,3.31
2023-09-03,17:50:00,3.32
2023-09-03,18:00:00,3.34
2023-09-03,18:10:00,3.35
2023-09-03,18:20:00,3.36
2023-09-03,18:30:00,3.38
2023-09-03,18:40:00,3.39
2023-09-03,18:50:00,3.42
2023-09-03,19:00:00,3.44
2023-09-03,19:10:00,3.46
2023-09-03,19:20:00,3.48
2023-09-03,19:30:00,3.5
2023-09-03,19:40:00,3.51
2023-09-03,19:50:00,3.52
2023-09-03,20:00:00,3.54
2023-09-03,20:10:00,3.55
2023-09-03,20:20:00,3.56
2023-09-03,20:30:00,3.58
2023-09-03,20:40:00,3.58
2023-09-03,20:50:00,3.6
2023-09-03,21:00:00,3.61
2023-09-03,21:10:00,3.63
2023-09-03,21:20:00,3.64
2023-09-03,21:30:00,3.65
2023-09-03,21:40:00,3.66
2023-09-03,21:50:00,3.67
2023-09-03,22:00:00,3.68
2023-09-03,22:10:00,3.69
2023-09-03,22:20:00,3.71
2023-09-03,22:30:00,3.72
2023-09-03,22:40:00,3.74
2023-09-03,22:50:00,3.74
2023-09-03,23:00:00,3.77
2023-09-03,23:10:00,3.77
2023-09-03,23:20:00,3.78
2023-09-03,23:30:00,3.8
2023-09-03,23:40:00,3.81
2023-09-03,23:50:00,3.82
2023-09-04,00:00:00,3.83
2023-09-04,00:10:00,3.86
2023-09-04,00:20:00,3.87
2023-09-04,00:30:00,3.88
2023-09-04,00:40:00,3.91
2023-09-04,00:50:00,3.92
2023-09-04,01:00:00,3.95
2023-09-04,01:10:00,3.97
2023-09-04,01:20:00,3.97
2023-09-04,01:30:00,3.99
2023-09-04,01:40:00,4.02
2023-09-04,01:50:00,4.02
2023-09-04,02:00:00,4.05
2023-09-04,02:10:00,4.06
2023-09-04,02:20:00,4.08
2023-09-04,02:30:00,4.1
2023-09-04,02:40:00,4.12
2023-09-04,02:50:00,4.14
2023-09-04,03:00:00,4.17
2023-09-04,03:10:00,4.18
2023-09-04,03:20:00,4.2
2023-09-04,03:30:00,4.22
2023-09-04,03:40:00,4.23
2023-09-04,03:50:00,4.24
2023-09-04,04:00:00,4.27
2023-09-04,04:10:00,4.28
2023-09-04,04:20:00,4.3
2023-09-04,04:30:00,4.31
2023-09-04,04:40:00,4.31
2023-09-04,04:50:00,4.34
2023-09-04,05:00:00,4.36
2023-09-04,05:10:00,4.36
2023-09-04,05:20:00,4.38
2023-09-04,05:30:00,4.39
2023-09-04,05:40:00,4.39
2023-09-04,05:50:00,4.42
2023-09-04,06:00:00,4.43
2023-09-04,06:10:00,4.45
2023-09-04,06:20:00,4.46
2023-09-04,06:30:00,4.46
2023-09-04,06:40:00,4.49
2023-09-04,06:50:00,4.51
2023-09-04,07:00:00,4.51
2023-09-04,07:10:00,4.53
2023-09-04,07:20:00,4.54
2023-09-04,07:30:00,4.57
2023-09-04,07:40:00,4.59
2023-09-04,07:50:00,4.59
2023-09-04,08:00:00,4.59
2023-09-04,08:10:00,4.62
2023-09-04,08:20:00,4.64
2023-09-04,08:30:00,4.64
2023-09-04,08:40:00,4.66
2023-09-04,08:50:00,4.68
2023-09-04,09:00:00,4.7
2023-09-04,09:10:00,4.7
2023-09-04,09:20:00,4.72
2023-09-04,09:30:00,4.73
2023-09-04,09:40:00,4.73
2023-09-04,09:50:00,4.74
2023-09-04,10:00:00,4.76
2023-09-04,10:10:00,4.77
2023-09-04,10:20:00,4.79
2023-09-04,10:30:00,4.79
2023-09-04,10:40:00,4.79
2023-09-04,10:50:00,4.81
2023-09-04,11:00:00,4.83
2023-09-04,11:10:00,4.84
2023-09-04,11:20:00,4.84
2023-09-04,11:30:00,4.86
2023-09-04,11:40:00,4.87
2023-09-04,11:50:00,4.87
2023-09-04,12:00:00,4.88
2023-09-04,12:10:00,4.88
2023-09-04,12:20:00,4.9
2023-09-04,12:30:00,4.92
2023-09-04,12:40:00,4.92
2023-09-04,12:50:00,-
2023-09-04,13:00:00,4.94
2023-09-04,13:10:00,4.94
2023-09-04,13:20:00,4.96
2023-09-04,13:30:00,4.96
2023-09-04,13:40:00,4.97
2023-09-04,13:50:00,4.99
2023-09-04,14:00:00,4.99
2023-09-04,14:10:00,4.99
2023-09-04,14:20:00,4.99
2023-09-04,14:30:00,5
2023-09-04,14:40:00,5.01
2023-09-04,14:50:00,5.01
2023-09-04,15:00:00,5.01
2023-09-04,15:10:00,5.02
2023-09-04,15:20:00,-
2023-09-04,15:30:00,5.03
2023-09-04,15:40:00,5.02
2023-09-04,15:50:00,5.04
2023-09-04,16:00:00,5.04
2023-09-04,16:10:00,5.04
2023-09-04,16:20:00,5.04
2023-09-04,16:30:00,5.06
2023-09-04,16:40:00,5.05
2023-09-04,16:50:00,5.06
2023-09-04,17:00:00,5.06
2023-09-04,17:10:00,5.05
2023-09-04,17:20:00,5.06
2023-09-04,17:30:00,5.06
2023-09-04,17:40:00,5.06
2023-09-04,17:50:00,5.06
2023-09-04,18:00:00,5.06
2023-09-04,18:10:00,5.08
2023-09-04,18:20:00,5.06
2023-09-04,18:30:00,5.06
2023-09-04,18:40:00,5.08
2023-09-04,18:50:00,5.07
2023-09-04,19:00:00,5.07
2023-09-04,19:10:00,5.07
2023-09-04,19:20:00,5.07
2023-09-04,19:30:00,5.07
2023-09-04,19:40:00,5.07
2023-09-04,19:50:00,5.07
2023-09-04,20:00:00,5.07
2023-09-04,20:10:00,5.07
2023-09-04,20:20:00,5.07
2023-09-04,20:30:00,5.08
2023-09-04,20:40:00,5.07
2023-09-04,20:50:00,5.07
2023-09-04,21:00:00,5.07
2023-09-04,21:10:00,5.08
2023-09-04,21:20:00,5.08
2023-09-04,21:30:00,5.07
2023-09-04,21:40:00,5.08
2023-09-04,21:50:00,5.08
2023-09-04,22:00:00,5.08
2023-09-04,22:10:00,5.07
2023-09-04,22:20:00,5.09
2023-09-04,22:30:00,5.08
2023-09-04,22:40:00,5.07
2023-09-04,22:50:00,5.08
2023-09-04,23:00:00,5.09
2023-09-04,23:10:00,5.09
2023-09-04,23:20:00,5.08
2023-09-04,23:30:00,5.09
2023-09-04,23:40:00,5.08
2023-09-04,23:50:00,5.1
2023-09-05,00:00:00,5.1
2023-09-05,00:10:00,5.09
2023-09-05,00:20:00,5.09
2023-09-05,00:30:00,5.08
2023-09-05,00:40:00,5.1
2023-09-05,00:50:00,5.09
2023-09-05,01:00:00,5.1
2023-09-05,01:10:00,5.1
2023-09-05,01:20:00,5.1
2023-09-05,01:30:00,5.11
2023-09-05,01:40:00,5.1
2023-09-05,01:50:00,5.1
2023-09-05,02:00:00,5.1
2023-09-05,02:10:00,5.11
2023-09-05,02:20:00,5.1
2023-09-05,02:30:00,5.1
2023-09-05,02:40:00,5.11
2023-09-05,02:50:00,5.12
2023-09-05,03:00:00,5.11
2023-09-05,03:10:00,5.11
2023-09-05,03:20:00,5.11
2023-09-05,03:30:00,5.11
2023-09-05,03:40:00,5.11
2023-09-05,03:50:00,5.1
2023-09-05,04:00:00,5.11
2023-09-05,04:10:00,5.12
2023-09-05,04:20:00,5.1
2023-09-05,04:30:00,5.1
2023-09-05,04:40:00,5.12
2023-09-05,04:50:00,5.11
2023-09-05,05:00:00,5.11
2023-09-05,05:10:00,5.11
2023-09-05,05:20:00,5.11
2023-09-05,05:30:00,5.12
2023-09-05,05:40:00,5.11
2023-09-05,05:50:00,5.11
2023-09-05,06:00:00,5.12
2023-09-05,06:10:00,5.12
2023-09-05,06:20:00,5.11
2023-09-05,06:30:00,5.11
2023-09-05,06:40:00,5.12
2023-09-05,06:50:00,5.12
2023-09-05,07:00:00,5.12
2023-09-05,07:10:00,5.11
2023-09-05,07:20:00,5.12
2023-09-05,07:30:00,5.11
2023-09-05,07:40:00,5.11
2023-09-05,07:50:00,5.11
2023-09-05,08:00:00,5.12
2023-09-05,08:10:00,5.11
2023-09-05,08:20:00,5.11
2023-09-05,08:30:00,5.11
2023-09-05,08:40:00,5.11
2023-09-05,08:50:00,5.1
2023-09-05,09:00:00,5.1
2023-09-05,09:10:00,5.1
2023-09-05,09:20:00,5.1
2023-09-05,09:30:00,5.09
2023-09-05,09:40:00,5.1
2023-09-05,09:50:00,5.09
2023-09-05,10:00:00,5.08
2023-09-05,10:10:00,5.09
2023-09-05,10:20:00,5.08
2023-09-05,10:30:00,5.08
2023-09-05,10:40:00,5.09
2023-09-05,10:50:00,5.08
2023-09-05,11:00:00,5.06
2023-09-05,11:10:00,5.06
2023-09-05,11:20:00,5.06
2023-09-05,11:30:00,5.06
2023-09-05,11:40:00,5.05
2023-09-05,11:50:00,5.07
2023-09-05,12:00:00,5.06
2023-09-05,12:10:00,5.04
2023-09-05,12:20:00,5.04
2023-09-05,12:30:00,5.04
2023-09-05,12:40:00,5.02
2023-09-05,12:50:00,5.03
2023-09-05,13:00:00,5.03
2023-09-05,13:10:00,5.01
2023-09-05,13:20:00,5.02
2023-09-05,13:30:00,4.99
2023-09-05,13:40:00,5
2023-09-05,13:50:00,4.99
2023-09-05,14:00:00,4.98
2023-09-05,14:10:00,4.98
2023-09-05,14:20:00,4.96
2023-09-05,14:30:00,4.95
2023-09-05,14:40:00,4.96
2023-09-05,14:50:00,4.95
2023-09-05,15:00:00,4.94
2023-09-05,15:10:00,4.93
2023-09-05,15:20:00,4.93
2023-09-05,15:30:00,4.91
2023-09-05,15:40:00,4.91
2023-09-05,15:50:00,4.89
2023-09-05,16:00:00,4.88
2023-09-05,16:10:00,4.88
2023-09-05,16:20:00,4.86
2023-09-05,16:30:00,4.85
2023-09-05,16:40:00,4.83
2023-09-05,16:50:00,4.82
2023-09-05,17:00:00,4.82
2023-09-05,17:10:00,4.8
2023-09-05,17:20:00,4.79
2023-09-05,17:30:00,4.78
2023-09-05,17:40:00,4.78
2023-09-05,17:50:00,4.76
2023-09-05,18:00:00,4.75
2023-09-05,18:10:00,4.73
2023-09-05,18:20:00,4.72
2023-09-05,18:30:00,4.7
2023-09-05,18:40:00,4.67
2023-09-05,18:50:00,4.68
2023-09-05,19:00:00,4.66
2023-09-05,19:10:00,4.64
2023-09-05,19:20:00,4.64
2023-09-05,19:30:00,4.61
2023-09-05,19:40:00,4.6
2023-09-05,19:50:00,4.58
2023-09-05,20:00:00,4.56
2023-09-05,20:10:00,4.55
2023-09-05,20:20:00,4.52
2023-09-05,20:30:00,4.52
2023-09-05,20:40:00,4.5
2023-09-05,20:50:00,4.47
2023-09-05,21:00:00,4.46
2023-09-05,21:10:00,4.44
2023-09-05,21:20:00,4.41
2023-09-05,21:30:00,4.4
2023-09-05,21:40:00,4.38
2023-09-05,21:50:00,4.37
2023-09-05,22:00:00,4.34
2023-09-05,22:10:00,4.33
2023-09-05,22:20:00,4.3
2023-09-05,22:30:00,4.3
2023-09-05,22:40:00,4.26
2023-09-05,22:50:00,4.24
2023-09-05,23:00:00,4.21
2023-09-05,23:10:00,4.2
2023-09-05,23:20:00,4.19
2023-09-05,23:30:00,4.17
2023-09-05,23:40:00,4.15
2023-09-05,23:50:00,4.11
2023-09-06,00:00:00,4.09
2023-09-06,00:10:00,4.08
2023-09-06,00:20:00,4.06
2023-09-06,00:30:00,4.04
2023-09-06,00:40:00,4.01
2023-09-06,00:50:00,3.98
2023-09-06,01:00:00,3.97
2023-09-06,01:10:00,3.95
2023-09-06,01:20:00,3.92
2023-09-06,01:30:00,3.9
2023-09-06,01:40:00,3.88
2023-09-06,01:50:00,3.86
2023-09-06,02:00:00,3.83
2023-09-06,02:10:00,3.81
2023-09-06,02:20:00,3.77
2023-09-06,02:30:00,3.77
2023-09-06,02:40:00,3.74
2023-09-06,02:50:00,3.73
2023-09-06,03:00:00,3.7
2023-09-06,03:10:00,3.68
2023-09-06,03:20:00,3.64
2023-09-06,03:30:00,3.64
2023-09-06,03:40:00,3.61
2023-09-06,03:50:00,3.59
2023-09-06,04:00:00,3.57
2023-09-06,04:10:00,3.54
2023-09-06,04:20:00,3.53
2023-09-06,04:30:00,3.49
2023-09-06,04:40:00,3.48
2023-09-06,04:50:00,3.45
2023-09-06,05:00:00,3.43
2023-09-06,05:10:00,3.41
2023-09-06,05:20:00,3.39
2023-09-06,05:30:00,3.38
2023-09-06,05:40:00,3.35
2023-09-06,05:50:00,3.33
2023-09-06,06:00:00,3.32
2023-09-06,06:10:00,3.29
2023-09-06,06:20:00,3.27
2023-09-06,06:30:00,3.24
2023-09-06,06:40:00,3.23
2023-09-06,06:50:00,3.21
2023-09-06,07:00:00,3.2
2023-09-06,07:10:00,3.17
2023-09-06,07:20:00,3.15
2023-09-06,07:30:00,3.13
2023-09-06,07:40:00,3.13
2023-09-06,07:50:00,3.11
2023-09-06,08:00:00,3.07
2023-09-06,08:10:00,3.06
2023-09-06,08:20:00,3.04
2023-09-06,08:30:00,3.02
2023-09-06,08:40:00,3.01
2023-09-06,08:50:00,2.99
2023-09-06,09:00:00,2.98
2023-09-06,09:10:00,2.96
2023-09-06,09:20:00,2.94
2023-09-06,09:30:00,2.92
2023-09-06,09:40:00,2.9
2023-09-06,09:50:00,2.89
2023-09-06,10:00:00,2.87
2023-09-06,10:10:00,2.85
2023-09-06,10:20:00,2.84
2023-09-06,10:30:00,2.83
2023-09-06,10:40:00,2.81
2023-09-06,10:50:00,2.8
2023-09-06,11:00:00,2.78
2023-09-06,11:10:00,2.76
2023-09-06,11:20:00,2.74
2023-09-06,11:30:00,2.74
2023-09-06,11:40:00,2.72
2023-09-06,11:50:00,2.69
2023-09-06,12:00:00,2.69
2023-09-06,12:10:00,2.68
2023-09-06,12:20:00,2.67
2023-09-06,12:30:00,2.65
2023-09-06,12:40:00,2.64
2023-09-06,12:50:00,2.64
2023-09-06,13:00:00,2.62
2023-09-06,13:10:00,2.62
2023-09-06,13:20:00,2.6
2023-09-06,13:30:00,2.59
2023-09-06,13:40:00,2.57
2023-09-06,13:50:00,2.57
2023-09-06,14:00:00,2.55
2023-09-06,14:10:00,2.54
2023-09-06,14:20:00,2.54
2023-09-06,14:30:00,2.53
2023-09-06,14:40:00,2.52
2023-09-06,14:50:00,2.52
2023-09-06,15:00:00,2.5
2023-09-06,15:10:00,2.5
2023-09-06,15:20:00,2.48
2023-09-06,15:30:00,2.48
2023-09-06,15:40:00,2.47
2023-09-06,15:50:00,2.46
2023-09-06,16:00:00,2.46
2023-09-06,16:10:00,2.45
2023-09-06,16:20:00,2.44
2023-09-06,16:30:00,2.43
2023-09-06,16:40:00,2.43
2023-09-06,16:50:00,2.42
2023-09-06,17:00:00,2.41
2023-09-06,17:10:00,2.4
2023-09-06,17:20:00,2.4
2023-09-06,17:30:00,2.39
2023-09-06,17:40:00,2.38
2023-09-06,17:50:00,2.37
2023-09-06,18:00:00,2.36
2023-09-06,18:10:00,2.35
2023-09-06,18:20:00,2.34
2023-09-06,18:30:00,2.33
2023-09-06,18:40:00,2.32
2023-09-06,18:50:00,2.31
2023-09-06,19:00:00,2.3
2023-09-06,19:10:00,2.3
2023-09-06,19:20:00,2.29
2023-09-06,19:30:00,2.28
2023-09-06,19:40:00,2.27
2023-09-06,19:50:00,2.25
2023-09-06,20:00:00,2.24
2023-09-06,20:10:00,2.24
2023-09-06,20:20:00,2.22
2023-09-06,20:30:00,2.21
2023-09-06,20:40:00,2.2
2023-09-06,20:50:00,2.19
2023-09-06,21:00:00,2.17
2023-09-06,21:10:00,2.17
2023-09-06,21:20:00,2.16
2023-09-06,21:30:00,2.14
2023-09-06,21:40:00,2.13
2023-09-06,21:50:00,2.12
2023-09-06,22:00:00,2.11
2023-09-06,22:10:00,2.1
2023-09-06,22:20:00,2.09
2023-09-06,22:30:00,2.08
2023-09-06,22:40:00,2.07
2023-09-06,22:50:00,2.06
2023-09-06,23:00:00,2.05
2023-09-06,23:10:00,2.04
2023-09-06,23:20:00,2.02
2023-09-06,23:30:00,2.02
2023-09-06,23:40:00,2.01
2023-09-06,23:50:00,2
2023-09-07,00:00:00,1.99
2023-09-07,00:10:00,1.99
2023-09-07,00:20:00,1.98
2023-09-07,00:30:00,1.97
2023-09-07,00:40:00,1.97
2023-09-07,00:50:00,1.95
2023-09-07,01:00:00,1.95
2023-09-07,01:10:00,1.94
2023-09-07,01:20:00,1.93
2023-09-07,01:30:00,1.92
2023-09-07,01:40:00,1.92
2023-09-07,01:50:00,1.91
2023-09-07,02:00:00,1.9
2023-09-07,02:10:00,1.9
2023-09-07,02:20:00,1.89
2023-09-07,02:30:00,1.88
2023-09-07,02:40:00,1.87
2023-09-07,02:50:00,1.87
2023-09-07,03:00:00,1.86
2023-09-07,03:10:00,1.86
2023-09-07,03:20:00,1.84
2023-09-07,03:30:00,1.84
2023-09-07,03:40:00,1.83
2023-09-07,03:50:00,1.83
2023-09-07,04:00:00,1.82
2023-09-07,04:10:00,1.82
2023-09-07,04:20:00,1.82
2023-09-07,04:30:00,1.81
2023-09-07,04:40:00,1.8
2023-09-07,04:50:00,1.79
2023-09-07,05:00:00,1.8
2023-09-07,05:10:00,1.78
2023-09-07,05:20:00,1.79
2023-09-07,05:30:00,1.78
2023-09-07,05:40:00,1.78
2023-09-07,05:50:00,1.76
2023-09-07,06:00:00,1.76
2023-09-07,06:10:00,1.76
2023-09-07,06:20:00,1.75
2023-09-07,06:30:00,1.75
2023-09-07,06:40:00,1.75
2023-09-07,06:50:00,1.74
2023-09-07,07:00:00,1.73
2023-09-07,07:10:00,1.73
2023-09-07,07:20:00,1.72
2023-09-07,07:30:00,1.72
2023-09-07,07:40:00,1.71
2023-09-07,07:50:00,1.72
2023-09-07,08:00:00,1.71
2023-09-07,08:10:00,1.7
2023-09-07,08:20:00,1.69
2023-09-07,08:30:00,1.69
2023-09-07,08:40:00,1.67
2023-09-07,08:50:00,1.68
2023-09-07,09:00:00,1.67
2023-09-07,09:10:00,1.66
2023-09-07,09:20:00,1.66
2023-09-07,09:30:00,1.66
2023-09-07,09:40:00,1.65
2023-09-07,09:50:00,1.65
2023-09-07,10:00:00,1.64
2023-09-07,10:10:00,1.64
2023-09-07,10:20:00,1.64
2023-09-07,10:30:00,1.64
2023-09-07,10:40:00,1.63
2023-09-07,10:50:00,1.63
2023-09-07,11:00:00,1.63
2023-09-07,11:10:00,1.62
2023-09-07,11:20:00,1.62
2023-09-07,11:30:00,1.61
2023-09-07,11:40:00,1.62
2023-09-07,11:50:00,1.61
2023-09-07,12:00:00,1.61
2023-09-07,12:10:00,1.61
2023-09-07,12:20:00,1.6
2023-09-07,12:30:00,1.6
2023-09-07,12:40:00,1.6
2023-09-07,12:50:00,1.61
2023-09-07,13:00:00,1.6
2023-09-07,13:10:00,1.6
2023-09-07,13:20:00,1.61
2023-09-07,13:30:00,1.6
2023-09-07,13:40:00,1.61
2023-09-07,13:50:00,1.61
2023-09-07,14:00:00,1.61
2023-09-07,14:10:00,1.61
2023-09-07,14:20:00,1.63
2023-09-07,14:30:00,1.63
2023-09-07,14:40:00,1.63
2023-09-07,14:50:00,1.64
2023-09-07,15:00:00,1.64
2023-09-07,15:10:00,1.64
2023-09-07,15:20:00,1.65
2023-09-07,15:30:00,1.66
2023-09-07,15:40:00,1.67
2023-09-07,15:50:00,1.67
2023-09-07,16:00:00,1.68
2023-09-07,16:10:00,1.68
2023-09-07,16:20:00,1.68
2023-09-07,16:30:00,1.69